Location: Maignaut
(43.8886°N, 0.4051°E)
Time: 19:23:57
(UTC+00:00)

CZ-4 R/B - Pass Details

Date: 17 January 2021
Orbit: 530 x 599 km, 97.7° (Epoch: 28 February)

Event Time Altitude Azimuth Distance (km) Brightness Sun altitude
Rises 19:24:37 0° 197° (SSW) 2,815 5.2 -27.6°
Reaches altitude 10° 19:27:08 10° 212° (SSW) 1,910 4.4 -28.0°
Maximum altitude 19:30:28 23° 265° (W) 1,256 3.8 -28.6°
Drops below altitude 10° 19:33:46 10° 319° (NW) 1,894 4.5 -29.2°
Sets 19:36:16 0° 334° (NNW) 2,784 5.2 -29.7°
